Regional Weather Roundup
Issued by NWS Burlington, VT

Home | Current Version | Previous Version | Text Only | Print | Product List | Glossary On
Versions: 1 2 3 4 5 6 7 8 9 10 11 12 13 14 15 16 17 18 19 20 21 22 23 24 25 26 27 28 29 30 31 32 33 34 35 36 37 38 39 40 41 42 43 44 45 46 47 48 49 50
000
ASUS41 KBTV 261610
RWRBTV
VERMONT REGIONAL WEATHER ROUNDUP
NATIONAL WEATHER SERVICE BURLINGTON VT
1200 PM EDT MON JUN 26 2017

NOTE: "FAIR" INDICATES FEW OR NO CLOUDS BELOW 12,000 FEET WITH NO
SIGNIFICANT WEATHER AND/OR OBSTRUCTIONS TO VISIBILITY.

* THESE REPORTS ARE NOT UNDER NWS QUALITY CONTROL AND/OR DO NOT
  REPORT WEATHER SUCH AS PRECIPITATION AND FOG.

VTZ001>019-261700-
_____VERMONT_____


CITY           SKY/WX    TMP DP  RH WIND       PRES   REMARKS
BURLINGTON     PTSUNNY   69  47  45 VRB3      29.98R
MORRISVILLE    PTSUNNY   65  43  44 VRB6      29.99R
ST. JOHNSBURY*   N/A     65  49  56 MISG      29.96R
LYNDONVILLE*   PTSUNNY   61  49  62 W5        29.99S
MIDDLEBURY*    CLOUDY    65  49  56 CALM      29.99S
RUTLAND*       CLOUDY    66  49  54 W6        29.99F
SPRINGFIELD    PTSUNNY   69  47  45 NW6       29.99S
HIGHGATE*      FAIR      67  49  53 NW7       29.97S
NEWPORT*       FAIR      64  47  55 W10       29.98S
BENNINGTON     MOSUNNY   67  53  61 SW8       30.01R
SUTTON*          N/A     64 N/A N/A MISG        N/A

_____LAKE CHAMPLAIN_____


CITY           SKY/WX    TMP DP  RH WIND       PRES   REMARKS

$$

NYZ007-026>031-035-052-083-087-261700-
_____NORTHERN NEW YORK_____


CITY           SKY/WX    TMP DP  RH WIND       PRES   REMARKS
SARANAC LAKE   CLOUDY    62  45  53 VRB5      29.99S
MASSENA        PTSUNNY   68  52  56 W8        29.99F
OGDENSBURG*    FAIR      67  53  60 SW3       29.99S
POTSDAM*       PTSUNNY   64  55  72 CALM      29.99S
WATERTOWN      CLOUDY    65  55  70 W9        29.99S
FT DRUM        DRIZZLE   64  54  68 W8        29.98F
ALBANY         PTSUNNY   72  54  53 W7        30.00S
GLENS FALLS    MOSUNNY   70  51  51 W8        29.98S

$$
NHZ002-005-011-261700-
_____NEW HAMPSHIRE_____


CITY           SKY/WX    TMP DP  RH WIND       PRES   REMARKS
LEBANON        CLOUDY    73  49  42 VRB6      29.97S
KEENE          PTSUNNY   71  49  45 VRB6      29.98F
MT WASHINGTON  FOG       37  37 100 NW30        N/A  VSB 0   WCI  25
PLYMOUTH       FAIR      70  47  44 W9        29.96S
WHITEFIELD     CLOUDY    63  48  58 N7        29.98R

$$

_____REGIONAL QUEBEC LOCATIONS_____


CITY           SKY/WX    TMP DP  RH WIND       PRES   REMARKS
MONTREAL       MOSUNNY   68  41  37 NW8G18    29.96S
QUEBEC CITY    PTSUNNY   66  52  59 SW12G17   29.90F
SHERBROOKE     PTSUNNY   63  50  63 SW7       29.94S

_____REGIONAL ONTARIO LOCATIONS_____


CITY           SKY/WX    TMP DP  RH WIND       PRES   REMARKS

______KEY______
VSB  - VISIBILITY IN MILES
WCI  - WIND CHILL INDEX
HX   - HEAT INDEX
$$
NNNN



USA.gov is the U.S. government's official web portal to all federal, state and local government web resources and services.